Weather History for KEWR - July, 2013

Change the Weather History Date:

Wednesday, July 3, 2013

  Actual Average Record
Temperature  
Mean Temperature 81 °F 77 °F  
Max Temperature 88 °F 86 °F 105 °F (1966)
Min Temperature 73 °F 68 °F 52 °F (1933)
Degree Days  
Heating Degree Days 0 0  
Month to date heating degree days 0 0  
Since 1 June heating degree days 8 17  
Since 1 July heating degree days 0 0  
Cooling Degree Days 16 12  
Month to date cooling degree days 42 35  
Year to date cooling degree days 407 350  
Since 1 June cooling degree days 307 274  
Growing Degree Days 30 (Base 50)    
Moisture  
Dew Point 72 °F    
Average Humidity 77    
Maximum Humidity 93    
Minimum Humidity 61    
Precipitation  
Precipitation 0.95 in 0.12 in 2.04 in (1978)
Month to date precipitation 2.04 0.38  
Year to date precipitation 27.03 23.29  
Snow  
Snow 0.00 in 0.00 in 0.00 in (2002)
Month to date snowfall 0.0 0.0  
Since 1 July snowfall 0.0 0.0  
Snow Depth 0.00 in    
Sea Level Pressure  
Sea Level Pressure 30.21 in    
Wind  
Wind Speed 8 mph (SSW)    
Max Wind Speed 16 mph    
Max Gust Speed 22 mph    
Visibility 9 miles    
Events Rain    
T = Trace of Precipitation, MM = Missing Value Source: NWS Daily Summary

Daily Weather History Graph

Daily Weather History Graph

Search for Another Location

Airport or City:

Trip Planner

Search our weather history database for the weather conditions in past years. The results will help you decide how hot, cold, wet, or windy it might be!

Date:

Astronomy

Jul. 03, 2013 Rise Set
Actual Time 5:30 AM EDT 8:31 PM EDT
Civil Twilight 4:57 AM EDT 9:04 PM EDT
Nautical Twilight 4:15 AM EDT 9:46 PM EDT
Astronomical Twilight 3:26 AM EDT 10:35 PM EDT
Moon 2:07 AM EDT (7/3) 4:38 PM EDT (7/3)
Length of Visible Light 16h 06m
Length of Day
15h 00m
Waning Crescent, 18% of the Moon is Illuminated
Jul 3
Waning Crescent
Jul 8
New
Jul 15
First Quarter
Jul 22
Full
Jul 29
Last Quarter

Hourly Weather History & Observations

Time (EDT) Temp. Heat Index Dew Point Humidity Pressure Visibility Wind Dir Wind Speed Gust Speed Precip Events Conditions
12:51 AM 75.0 °F - 70.0 °F 84% 30.18 in 10.0 mi SSW 10.4 mph - N/A   Mostly Cloudy
1:51 AM 73.9 °F - 69.1 °F 85% 30.19 in 10.0 mi SSW 9.2 mph - N/A   Scattered Clouds
2:51 AM 73.9 °F - 69.1 °F 85% 30.19 in 10.0 mi SW 9.2 mph - N/A   Mostly Cloudy
3:51 AM 73.9 °F - 69.1 °F 85% 30.19 in 10.0 mi WSW 10.4 mph - N/A   Mostly Cloudy
4:51 AM 73.0 °F - 70.0 °F 90% 30.20 in 10.0 mi SSW 9.2 mph - N/A   Mostly Cloudy
5:51 AM 73.0 °F - 70.0 °F 90% 30.21 in 10.0 mi SSW 4.6 mph - N/A   Mostly Cloudy
6:51 AM 73.9 °F - 71.1 °F 91% 30.23 in 10.0 mi SW 8.1 mph - N/A   Mostly Cloudy
7:51 AM 75.9 °F - 71.1 °F 85% 30.24 in 10.0 mi Variable 4.6 mph - N/A   Mostly Cloudy
8:51 AM 77.0 °F - 71.1 °F 82% 30.24 in 10.0 mi SW 3.5 mph - N/A   Mostly Cloudy
9:51 AM 78.1 °F - 72.0 °F 81% 30.25 in 10.0 mi SSW 8.1 mph - 0.00 in Rain Light Rain
10:51 AM 80.1 °F 83.6 °F 71.1 °F 74% 30.25 in 10.0 mi SW 12.7 mph - 0.00 in   Mostly Cloudy
11:51 AM 82.0 °F 86.7 °F 72.0 °F 71% 30.24 in 10.0 mi West 8.1 mph - N/A   Mostly Cloudy
12:51 PM 84.0 °F 89.6 °F 72.0 °F 67% 30.23 in 10.0 mi South 6.9 mph - N/A   Mostly Cloudy
1:51 PM 81.0 °F 85.2 °F 72.0 °F 74% 30.22 in 10.0 mi SE 16.1 mph 21.9 mph 0.00 in Rain Light Rain
1:55 PM 80.6 °F 85.4 °F 73.4 °F 79% 30.22 in 1.0 mi South 8.1 mph 21.9 mph 0.00 in Rain Rain
1:58 PM 78.8 °F - 73.4 °F 83% 30.23 in 1.0 mi Calm Calm - 0.14 in Rain Heavy Rain
2:00 PM 78.8 °F - 73.4 °F 83% 30.23 in 0.8 mi Calm Calm - 0.16 in Rain Heavy Rain
2:09 PM 75.2 °F - 73.4 °F 94% 30.23 in 1.0 mi South 5.8 mph - 0.51 in Rain Heavy Rain
2:19 PM 77.0 °F - 73.4 °F 89% 30.21 in 5.0 mi East 9.2 mph - 0.94 in Rain Heavy Rain
2:51 PM 80.1 °F 85.1 °F 75.0 °F 85% 30.20 in 10.0 mi East 8.1 mph - 0.94 in   Mostly Cloudy
3:51 PM 82.9 °F 89.4 °F 73.9 °F 74% 30.18 in 10.0 mi SE 4.6 mph - 0.00 in   Mostly Cloudy
4:51 PM 86.0 °F 92.2 °F 72.0 °F 63% 30.17 in 10.0 mi SSW 11.5 mph - N/A   Mostly Cloudy
5:51 PM 84.9 °F 90.7 °F 72.0 °F 65% 30.16 in 10.0 mi SW 11.5 mph - 0.00 in Rain Light Rain
6:51 PM 82.9 °F 89.4 °F 73.9 °F 74% 30.17 in 10.0 mi WSW 6.9 mph - 0.01 in   Mostly Cloudy
7:51 PM 82.0 °F 88.6 °F 75.0 °F 79% 30.19 in 10.0 mi SSE 4.6 mph - N/A   Mostly Cloudy
8:51 PM 80.1 °F 85.1 °F 75.0 °F 85% 30.19 in 10.0 mi South 3.5 mph - N/A   Mostly Cloudy
9:51 PM 80.1 °F 85.1 °F 75.0 °F 85% 30.21 in 10.0 mi South 3.5 mph - N/A   Mostly Cloudy
10:51 PM 79.0 °F - 75.0 °F 88% 30.22 in 10.0 mi South 4.6 mph - N/A   Mostly Cloudy
11:51 PM 79.0 °F - 75.0 °F 88% 30.22 in 10.0 mi SSW 10.4 mph - N/A   Mostly Cloudy